Zurück zum Katalog

CZ-2D DEB

AktivPO
NORAD 44605·DEBRIS·🇨🇳 China

Gestartet Nov 11, 2016 von Jiuquan Satellite Launch Center

Loading…

Nächste Überflüge (nächste 24 Stunden)

TLE

AlterndSource: Space-Track

Epoche: Sep 9, 2026, 02:43 UTC

1 44605U 16068E   26252.11358216  .00000234  00000-0  18094-3 0  9998
2 44605  98.4099 306.9215 0228566  23.9199 337.2384 13.89307344492803

Verfolge CZ-2D DEB in Echtzeit mit AllMySat

Download on the App Store